sat.trackr.live / text

‹ back to catalog

STARLINK-32429

NORAD 61682 · 2024-193X

PAYLOAD ACTIVE UNKNOWN

§ Identity

Operator
Country
US
Launch date
2024-10-26
Launch site
AFETR
Launch vehicle
Mass (kg)
RCS (m²)

Purposes: comms

External: N2YO · Heavens-Above · Gunter

§ Orbital elements

Epoch: 2026-05-25T03:08:52.784736Z

Period
94.11 min
Inclination
53.1587°
Eccentricity
0.0001055
Mean motion
15.30205451 rev/d
Perigee alt
474.5 km
Apogee alt
475.9 km
Semi-major
6,853.3 km
B*
2.2750e-4
RAAN
95.6914°
Arg perigee
69.7657°
Mean anomaly
290.3457°
Rev number
8,823

§ Raw data

STARLINK-324291 61682U 24193X   26145.13116649  .00006386  00000+0  22750-3 0  99922 61682  53.1587  95.6914 0001055  69.7657 290.3457 15.30205451 88236

JSON: /api/v1/satellites/61682 · /tle

For live sub-satellite position, see the globe view (requires WebGL).

§ Visibility from observer

Set your observer location to see the next 7 days of passes ≥ 10°. The values pass through the URL so the page stays shareable.

No JS? Fill the form by hand. The geolocation button needs JavaScript.